Terminal Aerodrome Forecast
Issued by NWS Milwaukee/Sullivan, WI

Home | Current Version | Previous Version | Text Only | Print | Product List | Glossary On
Versions: 1 2 3 4 5 6 7 8 9 10 11 12 13 14 15 16 17 18 19 20 21 22 23 24 25 26 27 28 29 30 31 32 33 34 35 36 37 38 39 40 41 42 43 44 45 46 47
000
FTUS43 KMKX 041203 AAA
TAFMSN
TAF AMD
KMSN 041203Z 0412/0512 33007KT 6SM BR SCT023 BKN250
     FM041500 34008KT P6SM SCT050 BKN250
     FM041800 04009KT P6SM SCT100 BKN250
     FM042300 08008KT P6SM BKN060
     FM050900 09006KT 5SM -TSRA BR BKN050CB=

USA.gov is the U.S. government's official web portal to all federal, state and local government web resources and services.